Terminal Aerodrome Forecast
Issued by NWS Boston, MA

Home | Current Version | Previous Version | Text Only | Print | Product List | Glossary On
Versions: 1 2 3 4 5 6 7 8 9 10 11 12 13 14 15 16 17 18 19 20 21 22 23 24 25 26 27 28 29 30 31 32 33 34 35 36 37 38 39 40 41 42 43 44
000
FTUS41 KBOX 231120
TAFPVD
TAF
KPVD 231120Z 2312/2412 22007KT P6SM SCT250
     FM231500 21011KT P6SM SCT250
     FM232300 21010G17KT P6SM BKN060
     FM240300 23006KT 3SM -SHRA BR BKN060
     FM241000 32004KT 2SM -SHRA BR OVC050=

USA.gov is the U.S. government's official web portal to all federal, state and local government web resources and services.